Location: Country View Observatory
(32.9873°N, 83.6444°W)
Time: 11:02:16
(UTC-04:00)

ISS - Pass Details

Date: 18 September 2019
Orbit: 411 x 421 km, 51.6° (Epoch: 17 October)

Event Time Altitude Azimuth Distance (km) Brightness Sun altitude
Rises 21:32:30 0° 250° (WSW) 2,330 0.8 -24.6°
Reaches altitude 10° 21:34:47 10° 263° (W) 1,471 -0.2 -25.0°
Enters shadow 21:37:29 26° 318° (NW) 840 -1.7 -25.6°
